AirNav   Air Wisconsin Up To $57,000 Bonus
 
 383 users online  

KVLL Oakland/Troy Airport
Troy, Michigan, USA

GOING TO TROY?


FAA INFORMATION EFFECTIVE 20 JUNE 2019

Location

FAA Identifier: VLL
Lat/Long: 42-32-34.6000N / 083-10-40.4000W
42-32.576667N / 083-10.673333W
42.5429444 / -83.1778889
(estimated)
Elevation: 727.2 ft. / 221.7 m (surveyed)
Variation: 06W (1995)
From city: 2 miles E of TROY, MI
Time zone: UTC -4 (UTC -5 during Standard Time)
Zip code: 48084

Airport Operations

Airport use: Open to the public
Control tower: no
ARTCC: CLEVELAND CENTER
FSS: LANSING FLIGHT SERVICE STATION
NOTAMs facility: VLL (NOTAM-D service available)
Attendance: 0800-1800
Pattern altitude: 1727.2 ft. MSL
Wind indicator: lighted
Segmented circle: no
Lights: ACTVT MIRL RY 09/27 & PAPI RYS 09 & 27 - CTAF.
Beacon: white-green (lighted land airport)
Operates sunset to sunrise.
Landing fee: yes

Airport Communications

CTAF/UNICOM: 123.05
WX AWOS-3: 119.475 (248-288-4649)
DETROIT APPROACH: 134.3
DETROIT DEPARTURE: 134.3
WX ASOS at DET (11 nm SE): PHONE 313-371-9696
WX ASOS at PTK (13 nm NW): 125.025 (248-886-8551)

Nearby radio navigation aids

VOR radial/distance  VOR name  Freq  Var
SVMr069/20.1SALEM VORTAC114.3003W
DXOr029/21.5DETROIT VOR/DME113.4006W
YQGr325/23.4WINDSOR VOR/DME113.8006W
CRLr026/32.2CARLETON VOR/DME115.7003W
FNTr141/35.7FLINT VORTAC116.9006W

 
NDB name  Hdg/Dist  Freq  Var  ID
GROSSE ILE005/26.541907WRYS .-. -.-- ...

Airport Services

Fuel available: 100LL JET-A
Parking: tiedowns
Airframe service: NONE
Powerplant service: NONE

Runway Information

Runway 9/27

Dimensions: 3549 x 60 ft. / 1082 x 18 m
Surface: asphalt, in fair condition
Runway edge lights: medium intensity
RUNWAY 9  RUNWAY 27
Latitude: 42-32.575973N42-32.578848N
Longitude: 083-11.068925W083-10.278788W
Elevation: 727.0 ft.701.0 ft.
Traffic pattern: leftleft
Runway heading: 096 magnetic, 090 true276 magnetic, 270 true
Markings: nonprecision, in good conditionnonprecision, in good condition
Visual slope indicator: 2-light PAPI on right (3.75 degrees glide path)2-light PAPI on left (3.75 degrees glide path)
Runway end identifier lights: nono
Touchdown point: yes, no lightsyes, no lights
Obstructions: 19 ft. trees, 542 ft. from runway, 18:1 slope to clear17 ft. bldg, lighted, 540 ft. from runway, 20:1 slope to clear

Airport Ownership and Management from official FAA records

Ownership: Publicly-owned
Owner: OAKLAND COUNTY
6500 HIGHLAND ROAD
WATERFORD, MI 48327
Phone (248) 288-6100
ARPT PHONE 248-666-3900
Manager: CHERYL BUSH
6500 HIGHLAND RD
WATERFORD, MI 48327
Phone 248-666-3900

Airport Operational Statistics

Aircraft based on the field: 115
Single engine airplanes: 104
Multi engine airplanes: 7
Helicopters: 3
Ultralights: 1
    
Aircraft operations: avg 82/day *
50% transient general aviation
50% local general aviation
* for 12-month period ending 31 December 2014

Additional Remarks

DEER AND BIRDS ON & INVOF ARPT.
RY 09 +3 FT BERM 316 FT FM THLD.
NO TGL OR PRACTICE TFC PATTERNS.
FOR CD CTC DETROIT APCH AT 800-499-8181.

Instrument Procedures

NOTE: All procedures below are presented as PDF files. If you need a reader for these files, you should download the free Adobe Reader.

NOT FOR NAVIGATION. Please procure official charts for flight.
FAA instrument procedures published for use from 20 June 2019 at 0901Z to 19 July 2019 at 0900Z.

 
STARs - Standard Terminal Arrivals
FOREY ONE (RNAV)   download (151KB)
OKLND ONE (RNAV)   download (129KB)
PETTE ONE (RNAV)   download (153KB)
RRALF ONE (RNAV)   download (142KB)
 
IAPs - Instrument Approach Procedures
RNAV (GPS) RWY 09   download (163KB)
 
Departure Procedures
BARII ONE (RNAV)   download (140KB)
CCOBB ONE (RNAV)   download (165KB)
CLVIN ONE (RNAV)   download (151KB)
HHOWE ONE (RNAV)   download (157KB)
KAYLN ONE (RNAV)   download (157KB)
LIDDS ONE (RNAV)   download (159KB)
MIGGY ONE (RNAV)   download (170KB)
PAVYL ONE (RNAV)   download (158KB)
SNDRS ONE (RNAV)   download (174KB)
TRMML ONE (RNAV)   download (140KB)
ZETTR ONE (RNAV)   download (176KB)
NOTE: Special Take-Off Minimums/Departure Procedures apply   download (125KB)

Other nearby airports with instrument procedures:

KDET - Coleman A Young Municipal Airport (11 nm SE)
KPTK - Oakland County International Airport (13 nm NW)
KMTC - Selfridge Air National Guard Base (16 nm E)
1D2 - Canton-Plymouth-Mettetal Airport (17 nm SW)
57D - Ray Community Airport (17 nm NE)
D98 - Romeo State Airport (18 nm NE)
Y47 - Oakland Southwest Airport (20 nm W)
 
Loc | Ops | Rwys | IFR | FBO | Links
Com | Nav | Svcs | Stats | Notes
Area around KVLL (Oakland/Troy Airport)
 
Road maps at: MapQuest Bing Google
 
Aerial photo
WARNING: Photo may not be current or correct
Aerial photo of KVLL (Oakland/Troy Airport)
Photo by Jeff Schuster
Photo taken 29-Jun-2014
looking west.

Do you have a better or more recent aerial photo of Oakland/Troy Airport that you would like to share? If so, please send us your photo.

 
Sectional chart

 
Airport distance calculator
Flying to Oakland/Troy Airport? Find the distance to fly.

From to KVLL

Sunrise and sunset
Times for 25-Jun-2019
 Local
(UTC-4)
 Zulu
(UTC)
Morning civil twilight05:2209:22
Sunrise05:5709:57
Sunset21:1301:13
Evening civil twilight21:4801:48

Current date and time
Zulu (UTC)  25-Jun-2019 08:37:06
Local (UTC-4)  25-Jun-2019 04:37:06
 
METAR
KVLL 250817Z AUTO 23006KT 10SM CLR 19/15 A2974 RMK AO2 T01850151
KDET 
11nm SE 
250753Z 25008KT 10SM CLR 19/16 A2972 RMK AO2 SLP062 T01890161
KPTK 
13nm NW 
250753Z AUTO 25008KT 10SM CLR 18/16 A2970 RMK AO2 SLP053 T01780161
KMTC 
17nm E 
250756Z AUTO 24009KT 10SM CLR 19/19 A2970 RMK AO2 SLP059 T01870187
CYQG 
19nm SE 
250800Z AUTO 25012G19KT 9SM CLR 19/16 A2973 RMK SLP066 DENSITY ALT 1400FT
KDTW 
20nm S 
250753Z 22008KT 10SM FEW080 FEW170 18/16 A2974 RMK AO2 SLP066 T01780161
TAF
KDET 
11nm SE 
250520Z 2506/2606 23010KT P6SM FEW100 FM251600 25012G20KT P6SM BKN050 FM260000 24008KT P6SM SCT250
KPTK 
13nm NW 
250520Z 2506/2606 23010KT P6SM SCT100 FM251600 25012G20KT P6SM BKN050 FM260000 24008KT P6SM SCT250
KMTC 
17nm E 
250205Z 2502/2607 24009KT 6000 -RA BR SCT040 BKN060 QNH2965INS BECMG 2512/2513 26009KT 9999 NSW SCT060 QNH2980INS BECMG 2516/2517 27010G20KT 9999 FEW030 BKN100 QNH2982INS TX27/2518Z TN17/2509Z LAST NO AMDS AFT 2503 NEXT 2509
CYQG 
19nm SE 
250538Z 2506/2606 24012KT P6SM FEW025 SCT060 TEMPO 2506/2512 BKN020 FM251200 26012KT P6SM SCT030 BECMG 2512/2514 27012G22KT FM260000 24012KT P6SM FEW060 RMK FCST BASED ON AUTO OBS. NXT FCST BY 251200Z
KDTW 
20nm S 
250520Z 2506/2612 23010KT P6SM FEW100 FM251600 25012G20KT P6SM BKN050 FM260000 24008KT P6SM SCT250
NOTAMs
Click for the latest NOTAMs
NOTAMs are issued by the DoD/FAA and will open in a separate window not controlled by AirNav.

 

 
 

FBO, Fuel Providers, and Aircraft Ground Support

  
 Business Name 
 
 Contact 
 
 Services / Description 
 
Fuel Prices
 
Comments
  
JDS Pump-N-Go 248-288-6100
[email]
Aviation fuel, Aircraft parking (ramp or tiedown), Hangar leasing / sales

More info about JDS Pump-N-Go
Avfuel
100LL Jet A
SS $5.46 $4.51 
 Updated 17-Jun-2019
 
   write
SS=Self service
Update Fuel Prices
 

Would you like to see your business listed on this page?

 If your business provides an interesting product or service to pilots, flight crews, aircraft, or users of the Oakland/Troy Airport, you should consider listing it here.  To start the listing process, click on the button below
 
Add a business
 

Other Pages about Oakland/Troy Airport

Oakland/Troy Airport Website
Page from the Michigan Airport Directory (PDF)
 
Update a link
 
Copyright © AirNav, LLC. All rights reserved. Privacy Policy  Contact